Retour au catalogue

IRIDIUM 33 DEB

ActifPO
NORAD 33966·DEBRIS·🇺🇸 United States

Lancé Sep 14, 1997 depuis Baikonur Cosmodrome

Loading…

Prochains Passages (prochaines 24 heures)

TLE

FraisSource: Space-Track

Époque: Sep 14, 2026, 08:03 UTC

1 33966U 97051CB  26257.33602124  .00001006  00000-0  25150-3 0  9995
2 33966  86.3877 287.6685 0007786  20.4768 352.1190 14.50580858924364

Suivez IRIDIUM 33 DEB en temps réel avec AllMySat

Download on the App Store